Temp
78 77 76 76 76 76 76 76 76 75 75 75 74 73 71 72 76 77 76 75 77 76 76 75 75 75 75 75 75 75 74 74 74
76 75 74 75 75 76 76 76 75 75 74 74 73 71 69 76 76 76 75 74 76 76 75 75 74 74 74 74 74 74 74 74 74
74 74 74 75 75 75 76 76 75 74 74 73 72 70 70 75 76 75 75 74 76 75 75 74 74 74 74 74 74 74 74 74 73
73 73 74 75 74 75 75 75 74 74 73 72 70 69 68 72 75 75 76 73 75 75 74 73 73 73 73 73 72 72 73 74 73
72 72 73 74 75 74 74 74 74 73 72 71 69 67 69 75 75 75 76 74 74 74 73 73 72 72 72 72 72 72 73 72 73
70 70 71 72 73 73 73 73 71 69 68 68 66 67 73 75 75 75 72 74 74 73 72 72 72 72 72 72 72 71 71 71 71
69 68 70 71 71 71 71 70 67 68 71 70 67 72 73 73 74 75 72 73 73 72 72 71 71 71 71 71 71 71 70 70 70
68 66 66 70 66 71 70 68 70 70 70 69 70 70 71 73 74 73 71 73 73 72 71 72 71 71 70 70 70 70 70 70 70
63 62 61 67 68 67 67 67 68 67 68 69 69 69 71 73 73 72 69 72 72 72 72 71 70 70 70 70 70 70 70 69 69
63 60 63 65 65 65 65 66 66 66 66 67 67 67 69 70 71 69 67 69 71 71 71 71 70 70 70 70 69 69 69 68 68
63 62 62 63 65 64 65 66 65 65 66 64 65 65 66 68 69 69 69 68 69 71 71 71 70 70 70 69 68 67 67 67 66
61 61 61 62 63 63 63 63 64 63 63 63 63 64 65 66 66 67 68 68 65 68 70 70 70 69 69 68 67 66 66 65 65
60 60 60 61 62 62 63 62 61 62 63 61 62 63 63 64 65 65 66 67 68 68 68 69 69 69 68 67 66 65 65 65 64
60 60 60 60 60 61 61 59 62 59 59 60 60 61 61 62 63 63 63 63 65 67 63 64 65 66 67 66 66 65 64 64 64
59 59 58 58 58 58 59 59 58 60 60 60 57 58 59 60 62 62 61 61 61 63 63 64 65 64 65 65 65 64 64 63 63
59 58 58 58 58 58 59 58 57 56 58 56 55 57 57 57 59 59 60 59 60 60 60 61 62 64 62 62 62 63 63 63 62
58 58 58 57 57 57 58 58 56 56 58 57 56 53 56 57 57 57 57 58 58 58 58 59 58 59 59 60 59 60 61 61 61
58 57 57 57 58 57 57 58 58 56 56 59 59 51 52 54 55 55 56 57 57 58 57 57 57 57 58 57 57 57 58 59 60
56 56 57 57 57 57 57 59 59 59 55 55 55 56 57 53 49 53 54 56 56 56 56 56 55 55 55 53 54 55 56 57 58
56 56 56 56 55 57 57 57 56 60 59 56 52 52 53 53 54 50 51 52 54 54 55 55 55 53 53 54 54 54 55 56 57
MSLP
1019.28 1019.66 1020.04 1020.31 1020.83 1021.24 1021.48 1021.65 1021.92 1022.17 1022.34 1022.52 1022.77 1022.99 1023.11 1023.00 1022.92 1022.85 1022.98 1023.00 1022.99 1023.26 1023.49 1023.61 1023.68 1023.63 1023.81 1023.87 1023.76 1023.80 1024.12 1024.27 1024.49
1019.45 1019.93 1020.32 1020.66 1021.20 1021.48 1021.73 1022.01 1022.27 1022.45 1022.60 1022.86 1023.13 1023.31 1023.32 1023.02 1023.09 1023.19 1023.30 1023.39 1023.57 1023.70 1023.90 1024.04 1024.09 1024.32 1024.47 1024.40 1024.40 1024.59 1024.64 1024.80 1024.90
1019.99 1020.35 1020.75 1021.05 1021.30 1021.63 1021.87 1022.12 1022.44 1022.69 1022.94 1023.22 1023.34 1023.50 1023.50 1023.34 1023.45 1023.65 1023.85 1023.96 1023.97 1024.12 1024.30 1024.52 1024.78 1024.92 1024.94 1024.97 1025.05 1025.18 1025.24 1025.29 1025.36
1020.36 1020.74 1021.04 1021.20 1021.61 1021.82 1021.97 1022.24 1022.50 1022.87 1023.35 1023.57 1023.65 1023.82 1023.99 1023.96 1024.02 1024.07 1024.19 1024.38 1024.41 1024.59 1024.87 1025.14 1025.29 1025.32 1025.41 1025.55 1025.74 1025.87 1025.79 1025.67 1025.77
1020.72 1021.08 1021.28 1021.51 1021.77 1022.01 1022.16 1022.43 1022.75 1023.14 1023.62 1023.87 1024.02 1024.16 1024.18 1024.18 1024.32 1024.48 1024.69 1024.72 1024.97 1025.18 1025.31 1025.51 1025.73 1025.87 1026.04 1026.14 1026.12 1026.22 1026.12 1026.29 1026.27
1021.06 1021.32 1021.54 1021.80 1022.01 1022.23 1022.37 1022.65 1023.10 1023.64 1024.06 1024.29 1024.42 1024.51 1024.57 1024.61 1024.72 1024.95 1025.16 1025.17 1025.40 1025.58 1025.78 1025.99 1026.13 1026.23 1026.36 1026.44 1026.55 1026.65 1026.73 1026.87 1026.95
1021.39 1021.67 1021.89 1022.16 1022.38 1022.58 1022.71 1023.03 1023.55 1023.93 1024.23 1024.43 1024.71 1024.84 1024.97 1025.07 1025.07 1025.25 1025.47 1025.61 1025.89 1026.07 1026.20 1026.39 1026.59 1026.76 1026.86 1026.98 1027.03 1027.14 1027.36 1027.40 1027.46
1021.73 1022.03 1022.39 1022.66 1022.83 1022.92 1023.16 1023.55 1023.81 1023.96 1024.34 1024.81 1025.00 1025.14 1025.07 1025.14 1025.25 1025.47 1025.76 1025.92 1026.11 1026.40 1026.58 1026.64 1026.97 1027.09 1027.32 1027.44 1027.57 1027.72 1027.76 1027.78 1027.81
1022.17 1022.50 1022.89 1023.04 1023.27 1023.43 1023.67 1023.89 1024.13 1024.46 1024.73 1024.92 1025.29 1025.33 1025.31 1025.33 1025.54 1025.85 1026.08 1026.29 1026.52 1026.62 1026.86 1027.01 1027.26 1027.44 1027.61 1027.79 1027.94 1027.99 1028.10 1028.13 1028.19
1022.60 1023.04 1023.14 1023.35 1023.58 1023.76 1024.01 1024.17 1024.43 1024.74 1025.08 1025.35 1025.52 1025.71 1025.81 1025.84 1025.96 1026.21 1026.42 1026.59 1026.88 1027.15 1027.23 1027.43 1027.63 1027.76 1027.94 1028.10 1028.27 1028.36 1028.44 1028.56 1028.66
1022.71 1023.12 1023.34 1023.52 1023.74 1023.98 1024.14 1024.32 1024.60 1025.07 1025.38 1025.74 1026.01 1026.17 1026.30 1026.36 1026.47 1026.61 1026.81 1026.88 1027.07 1027.27 1027.46 1027.71 1027.92 1028.12 1028.22 1028.44 1028.62 1028.81 1028.96 1028.98 1029.01
1022.79 1023.11 1023.42 1023.51 1023.88 1024.14 1024.40 1024.70 1025.02 1025.39 1025.82 1026.09 1026.39 1026.58 1026.72 1026.80 1026.92 1027.02 1027.16 1027.31 1027.49 1027.55 1027.64 1027.85 1028.10 1028.34 1028.57 1028.82 1029.14 1029.27 1029.37 1029.39 1029.38
1022.90 1023.18 1023.48 1023.59 1023.84 1024.09 1024.37 1024.75 1025.21 1025.44 1025.83 1026.23 1026.44 1026.75 1026.98 1027.09 1027.19 1027.30 1027.42 1027.66 1027.79 1027.88 1027.99 1028.20 1028.43 1028.56 1028.86 1029.13 1029.29 1029.46 1029.56 1029.59 1029.56
1022.77 1023.09 1023.46 1023.85 1023.85 1024.06 1024.36 1024.92 1025.05 1025.69 1026.13 1026.49 1026.85 1027.09 1027.26 1027.41 1027.54 1027.64 1027.80 1028.08 1028.34 1028.48 1028.66 1028.88 1028.98 1029.08 1029.21 1029.44 1029.54 1029.61 1029.63 1029.67 1029.63
1022.68 1023.07 1023.39 1023.94 1024.12 1024.30 1024.47 1024.75 1025.30 1025.67 1026.12 1026.64 1027.21 1027.48 1027.64 1027.75 1027.82 1027.98 1028.25 1028.40 1028.48 1028.70 1028.89 1029.04 1029.25 1029.41 1029.50 1029.64 1029.78 1029.81 1029.83 1029.78 1029.74
1022.52 1022.84 1023.26 1023.55 1023.84 1024.04 1024.38 1024.99 1025.33 1025.97 1026.36 1026.75 1027.60 1027.91 1028.11 1028.03 1028.12 1028.40 1028.46 1028.61 1028.80 1028.95 1029.29 1029.42 1029.57 1029.71 1029.85 1029.94 1029.86 1029.93 1029.94 1029.81 1029.75
1022.23 1022.55 1022.90 1023.29 1023.69 1024.10 1024.38 1024.65 1025.35 1025.89 1026.18 1026.21 1026.97 1027.59 1028.12 1028.19 1028.19 1028.44 1028.66 1028.83 1029.07 1029.25 1029.43 1029.49 1029.64 1029.82 1029.92 1030.05 1030.15 1029.94 1029.94 1029.86 1029.69
1021.71 1022.11 1022.52 1023.00 1023.30 1023.62 1023.97 1024.22 1024.47 1024.96 1025.89 1025.74 1025.75 1026.78 1026.63 1027.33 1027.96 1028.10 1028.23 1028.47 1028.68 1028.90 1029.20 1029.50 1029.72 1029.85 1030.00 1030.17 1030.21 1030.22 1030.08 1029.95 1029.75
1021.56 1021.84 1022.16 1022.50 1022.90 1023.23 1023.49 1023.74 1024.05 1024.37 1024.98 1025.82 1025.85 1025.66 1025.68 1026.33 1027.24 1027.77 1027.92 1028.15 1028.36 1028.69 1029.20 1029.51 1029.91 1030.10 1030.30 1030.46 1030.52 1030.43 1030.39 1030.21 1030.01
1021.31 1021.55 1021.82 1022.10 1022.50 1022.69 1023.00 1023.38 1023.72 1023.84 1024.13 1024.50 1025.30 1025.76 1025.89 1026.03 1026.18 1026.81 1027.56 1028.35 1028.46 1028.73 1029.00 1029.39 1029.68 1030.07 1030.39 1030.57 1030.64 1030.77 1030.79 1030.52 1030.35
Wind_Speed
18 15 13 14 13 15 15 14 17 16 16 18 17 14 12 9 10 11 14 12 19 21 21 20 21 22 21 22 22 23 22 22 22
16 16 15 13 15 15 15 17 17 16 17 19 17 15 11 12 12 13 12 13 20 22 20 19 20 19 19 20 20 20 20 18 17
17 16 16 16 17 17 16 17 16 18 19 18 17 15 11 12 13 13 12 16 19 20 20 19 18 19 18 17 18 17 17 19 19
17 16 16 19 17 16 15 16 18 18 18 17 18 15 12 11 10 11 9 16 18 17 19 18 17 17 17 17 18 18 18 19 17
15 14 15 15 16 13 16 15 17 18 17 16 17 14 12 12 12 10 9 17 17 17 18 18 18 18 17 17 17 19 17 18 18
10 9 11 14 14 12 12 18 20 16 13 15 15 10 7 10 8 8 15 17 17 17 18 18 17 17 17 17 17 18 17 17 16
6 7 12 10 11 11 17 19 17 12 7 7 9 5 8 7 7 8 16 17 17 16 17 17 17 17 16 16 16 17 16 16 15
4 3 3 4 8 6 9 9 6 10 7 6 6 6 6 5 5 10 14 15 15 17 16 17 16 16 16 16 15 15 14 13 13
3 4 4 5 4 6 5 5 8 9 9 9 8 7 5 4 4 8 13 14 14 15 15 15 16 15 15 14 14 13 12 12 12
5 4 4 5 5 5 6 7 7 9 8 7 8 7 7 6 4 4 11 14 15 14 14 15 13 14 13 13 13 12 12 13 13
6 6 5 5 4 5 6 7 7 7 7 7 7 7 6 7 7 5 6 10 13 14 13 14 14 12 12 13 13 13 12 11 11
6 6 6 5 5 6 7 7 7 7 6 8 6 6 6 6 7 5 6 7 7 12 14 13 12 11 12 13 12 11 11 11 11
6 6 6 6 6 6 7 7 6 6 6 6 6 5 5 6 6 6 5 5 4 7 11 11 10 12 12 11 11 10 10 10 10
7 6 6 6 5 6 7 6 7 6 6 6 5 4 4 5 4 6 6 7 6 6 12 10 9 10 10 9 9 9 9 9 9
7 5 7 6 5 5 6 9 5 6 7 7 5 3 3 3 3 5 4 6 7 6 7 6 6 8 9 9 8 8 8 8 8
8 6 7 7 8 9 9 5 9 5 7 7 4 2 1 3 3 3 4 5 5 5 4 4 4 5 8 8 8 7 6 6 7
8 8 7 8 6 8 10 9 5 3 9 5 4 4 3 4 4 3 4 5 3 4 5 5 5 5 4 6 6 6 4 4 5
9 9 7 8 7 7 10 9 11 7 9 7 4 5 5 4 3 7 6 7 6 6 6 6 6 6 5 6 5 5 3 3 5
8 8 8 9 7 8 9 9 9 7 10 3 3 1 3 4 4 4 6 6 7 7 5 5 5 6 4 5 4 3 1 3 6
7 8 9 8 7 8 10 10 10 9 9 8 4 2 1 1 2 4 6 4 4 3 4 4 5 5 4 3 3 1 3 6 8
Wind_Direction
145 145 137 133 135 135 133 126 127 124 123 115 109 102 95 96 92 95 95 93 89 87 79 71 72 67 64 69 71 69 68 65 62
123 122 122 127 145 149 136 130 127 125 115 106 104 95 88 100 95 93 90 91 91 85 79 74 70 67 65 62 64 68 66 72 75
129 126 136 151 156 137 145 138 135 124 107 108 101 91 86 95 93 90 89 89 85 83 80 78 72 72 71 73 72 74 74 71 69
132 138 150 151 142 149 148 141 133 121 118 112 99 91 84 94 97 95 89 83 85 88 87 84 83 80 80 79 75 75 74 72 70
137 146 153 148 145 144 142 138 123 122 120 110 101 90 83 97 96 90 93 95 92 92 92 91 90 90 89 85 84 76 73 67 63
141 145 142 142 141 133 141 128 111 102 100 108 99 92 98 102 101 98 97 100 100 101 99 96 97 93 88 86 81 82 78 75 71
137 134 141 136 134 120 119 114 113 113 112 92 92 104 120 107 107 106 101 102 102 102 98 101 97 94 95 91 87 82 79 75 72
135 106 119 104 103 122 111 114 121 112 111 101 100 103 100 105 108 101 115 109 110 107 109 105 97 96 95 88 86 83 82 80 76
117 104 109 117 122 124 125 124 119 114 115 117 113 105 99 100 104 122 115 114 120 111 111 109 104 97 98 96 94 91 83 74 64
127 115 129 125 132 133 139 136 129 124 120 116 119 110 103 99 101 111 119 124 121 120 116 113 109 102 101 95 92 89 81 67 56
152 145 143 140 149 142 149 146 136 127 126 118 117 113 107 102 100 93 109 124 132 134 128 120 114 109 107 103 88 78 75 70 62
163 158 160 158 154 141 141 134 131 127 123 126 126 123 117 114 107 104 99 84 68 133 130 125 128 119 106 95 92 82 74 63 54
169 168 172 169 160 156 156 150 142 139 145 142 139 135 133 125 116 106 101 93 88 107 118 117 121 118 106 108 99 86 74 64 56
178 180 169 173 168 166 159 155 152 152 144 137 131 132 138 135 129 123 112 96 91 97 75 76 92 114 116 106 93 84 75 64 54
184 179 167 169 173 170 168 165 152 158 151 133 122 127 133 144 155 145 132 130 131 126 122 119 119 112 114 102 88 78 72 64 52
192 190 184 178 177 180 175 156 160 146 151 124 109 96 145 175 174 168 168 165 155 140 135 131 123 131 119 110 99 83 71 62 50
196 197 194 187 176 176 179 169 156 131 178 148 134 166 197 227 206 198 203 190 166 165 169 165 152 139 132 127 111 95 75 49 35
198 193 186 188 188 186 189 182 178 164 193 197 159 160 205 170 182 211 205 195 196 195 185 180 171 163 152 140 128 115 78 26 357
196 192 190 190 190 191 192 192 189 175 183 204 232 355 139 177 181 207 212 205 203 197 190 186 176 171 166 162 160 127 29 341 332
202 200 196 197 196 200 192 188 194 199 189 197 158 172 135 116 146 171 184 207 211 198 192 186 179 177 172 163 145 94 337 326 321